ADEOS 2

Satellite information

Favourite Embed

Satellite Type and Status

PAYLOADIN ORBIT

Key statistics

Satellite ADEOS 2 at a glance.

Uptime

8400

Days in orbit

Revolutions

≈ 14.3

Per day

Orbit

SSO

Sun Synchronous Orbit

Inclination

98.8

Latest

Satellite identification and parameters

Extended collection of information and parameters for ADEOS 2.

Object identification

Identified? True

Debris? False

Object name: ADEOS 2

International designator: 2002-056A

Object number (NORAD): 27597

Object ID (CCSDS): 27597

Country: JAPAN (JPN)

Current information (Y/N): Y

RCS size: LARGE

Orbital parameters

Period: 100.755 minutes

Inclination: 98.7635 deg

SMA: 7172.525 km

Apoapsis: 794.502 km

Periapsis: 794.278 km

RAAN: 299.2492 deg

Eccentricy: 0.00001565

Argument of periapsis: 148.4369 deg

Mean anomaly: 211.6822 deg

Mean motion: 14.29205483 rev/day

Mean motion (dot): 0.0000048 rev/day2

B* drag term: 0.00020690721 1/REarth

Two-line elements (TLE)

Creation date: Dec. 12, 2025, 10:14 a.m.

Reference frame: TEME

Reference center: EARTH

Epoch: Dec. 12, 2025, 7:05 a.m. UTC

TLE line 0: 0 ADEOS 2

TLE line 1: 1 27597U 02056A 25346.29535895 .00000480 00000-0 20691-3 0 9992

TLE line 2: 2 27597 98.7635 299.2492 0000157 148.4369 211.6822 14.29205483197811

Live tracking on map

Real-time ground track for satellite ADEOS 2.

In-orbit conjunctions

A list of the most updated potential collisions computed for object ADEOS 2.

Target Orbit TCA Probability of collision Miss distance Type
METEOR 2-8 DEB LEO 2025-10-19 16:25:37 0.0001752487 262.0 (m) DEBRIS
FENGYUN 1C DEB SSO 2025-09-30 03:42:27 0.0001841654 836.0 (m) DEBRIS
THOR ABLESTAR DEB LEO 2025-07-05 03:55:39 0.0001043883 355.0 (m) DEBRIS
FENGYUN 1C DEB SSO 2025-03-04 18:16:48 0.0001171082 670.0 (m) DEBRIS
CZ-6A DEB SSO 2025-01-16 01:52:18 0.0002361313 475.0 (m) DEBRIS

Associated space launch

Midori II has been engaged in various observation missions to understand the realities and causes of global environmental changes, such as abnormal weather conditions and the expansion of the ozone hole.

ADEOS 2 was lifted into orbit during the mission ‘H-IIA 202 | Midori-2’, on board a H-IIA space rocket.

The launch took place on Dec. 14, 2002, 1:31 a.m. from Yoshinobu Launch Complex LP-1.

For more information about the launch, click the button.

Launch to space H-IIA 202 | Midori-2
H-IIA 202 | Midori-2

Agency: N/A

Status: Launch Successful

Launch date: Dec. 14, 2002, 1:31 a.m. UTC

Rocket: H-IIA

Launch pad: Yoshinobu Launch Complex LP-1

Location: Tanegashima Space Center, Japan

...

Latest news about this satellite

There are no fresh news available about this satellite. Check back as we update our databases every day.


Newsletter sign-up

Weekly statistics, charts and insights to help you stay on top of the space industry.